NOAA 16 DEB, 41156

Orbit data source: Space-Track

NOAA 16 DEB, 41156 is space debris in SSO originally from a launch on Thu, 21 Sep 2000 UTC launched from the Air Force Western Test Range (AFWTR). Debris objects in space refer to the collection of defunct objects orbiting the Earth. Examples of debris include non-operational satellites, rocket bodies, and fragments generated from explosions, collisions, or faulty payload assembly.

Loading next visibility...
Identifier
41156, 2000-055CP
Orbit
SSO
Country
Flag of USUS
Related business
Manufacturer
Unknown
Mission
Spacecraft
Bus & Motor
Unknown
Mass
Unknown
Launch date (UTC)
2000-09-21 (26 years ago)
Launch vehicle
Unknown
Launch site
Air Force Western Test Range (AFWTR)
Object type
Payload
Rocket body
Debris
Shape & HBR
Unknown shape, 0.1 m
Radar Cross Section
Small (<0.1 m²)

Expand to show TLE details & history
Last TLE update: 2 days ago

TLE from 2 days ago
0 NOAA 16 DEB
1 41156U 00055CP  26124.69140298  .00027396  00000-0  33807-2 0  9991
2 41156  98.9405  28.0214 0027871  83.5019 276.9363 14.82544890546323
Epoch: 2026-05-04T16:35Z
TLE epoch observation values (Epoch: 2026-05-04T16:35:37.217Z)
Latitude
-0.00003°
Longitude
-83.46063°
Altitude
621.992 km
Speed
7.549 km/s
True Right ascension
01h 52m 05s
True Declination
0° 00' 00"
Sunlit
Object was in daylight at epoch
Visualization orbit readout
Latitude
Unknown
Longitude
Unknown
Altitude
Unknown
Speed
Unknown
Apparent Right ascension
Unknown
Apparent Declination
Unknown
Sunlit
N/A
Visualization observer readout
Local Sidereal Time
15:08:50
Azimuth
Unknown
Elevation
Unknown
Doppler factor
Unknown
Orbital elements
Apogee altitude
637.89 km
Perigee altitude
598.89 km
Semi-major axis
6,996.527 km
Eccentricity
0.00279
Inclination
98.9405°
RAAN
28.0214°
Arg. of periapsis
83.5019°
True anomaly
276.61913°
Mean anomaly
276.9363°
Eccentric anomaly
276.77773°
Mean motion
3.70868 °/min
Orbital period
97.07 mins
BSTAR
0.0033807
Loading maneuver chart data...
Computing Atmospheric mass density...
Loading historical data...
Loading historical data...
Loading historical data...
Loading historical data...
Loading historical data...
Loading historical data...
Loading historical data...

Documentation

Showing up to 5 results
|